Location: Unspecified
(0.0000°N, 0.0000°E)
Time: 13:22:24
(UTC+00:00)

N. Korean satellite - Visible Passes

Search period start: 12 April 2021 00:00
Search period end: 22 April 2021 00:00
Orbit: 453 x 499 km, 97.2° (Epoch: 11 April)

Date Brightness Start Highest point End Pass type
(mag) Time Alt. Az. Time Alt. Az. Time Alt. Az.
12 Apr 7.3 04:49:07 10° NNE 04:52:34 53° E 04:55:59 10° S visible
13 Apr 9.3 04:23:10 10° NE 04:25:40 18° E 04:28:08 10° SE visible
14 Apr 7.5 05:28:45 10° NNW 05:31:47 27° W 05:34:48 10° SW visible
15 Apr 6.4 05:01:23 10° N 05:04:53 88° W 05:08:21 10° SSW visible
16 Apr 8.5 04:34:54 10° NE 04:37:58 29° E 04:41:00 10° SSE visible
17 Apr 9.9 04:10:23 10° E 04:11:03 10° E 04:11:44 10° ESE visible
18 Apr 6.6 05:13:47 10° N 05:17:10 50° W 05:20:31 10° SSW visible
19 Apr 7.4 04:46:53 10° NNE 04:50:15 48° E 04:53:35 10° S visible
20 Apr 9.4 04:21:02 10° ENE 04:23:19 17° E 04:25:35 10° SE visible
21 Apr 7.3 05:26:22 10° NNW 05:29:25 29° W 05:32:26 10° SW visible
